User: anonymous
Location: Trois-Rivi�res
(46.3500°N, 72.5500°W)
Time: 20:30:03
(UTC-04:00)
Language:

SJ-11-01 - Orbit

View from above orbital plane
View from above orbital plane
View from above satellite
View from above satellite

Ground track
Ground track

The orbit data is extracted from the following two-line orbital elements,

1 36088U 09061A   14293.51890753  .00000569  00000-0  12730-3 0  5046
2 36088 098.0212 337.9536 0012477 053.6086 306.6268 14.60174548263028
Epoch (UTC): 20 October 2014 12:27:13
Eccentricity: 0.0012477
inclination: 98.0212°
perigee height: 684 km
apogee height: 701 km
right ascension of ascending node: 337.9536°
argument of perigee: 53.6086°
revolutions per day: 14.60174548
mean anomaly at epoch: 306.6268°
orbit number at epoch: 26302

The dashed part of the orbit path shows where the satellite is in the earth's shadow,  

DLR